STARLINK-11589, 63311

Orbit data source: Space-Track

STARLINK-11589, 63311 is a payload satellite owned by SpaceX/Seattle (US) in LEO that was launched on Tue, 18 Mar 2025 UTC via an FALCON 9 launch vehicle from the Air Force Eastern Test Range (AFETR). Payload-class satellites include a variety of spacecraft equipped with specific instruments for various scientific and technological missions. These include communications satellites like Starlink; space stations such as the ISS; scientific satellites like the Hubble; Earth observation satellites from companies like Planet Labs, Umbra, and HawkEye 360; GPS; miniature CubeSats for education and research; and military/defense satellites.

Loading next visibility...
Identifier
63311, 2025-057E
Orbit
LEO
Last TLE update
10 hours ago
Origin
Manufacturer
SpaceX/Seattle
Mission
Operational Commercial Communications
Bus & Motor
STARLINK V2M, Unknown motor
Mass
730 kg wet, ~700 kg dry
Launch date (UTC)
2025-03-18 (3 months ago)
Launch vehicle
FALCON 9
Launch site
Air Force Eastern Test Range (AFETR)
Object type
Payload
Rocket body
Debris
Shape & HBR
Box + 2 Pan, 29 m
Radar Cross Section
36.964 m², Large (>1 m²)

Expand to show TLE details & history

TLE from 10 hours ago
0 STARLINK-11589
1 63311U 25057E   25182.79509723  .00197732  00000-0  15059-2 0  9994
2 63311  42.9991 337.2700 0001678 290.5510  69.5178 15.70874568 17719
Epoch: 2025-07-01T19:04Z
TLE epoch observation values (Epoch: 2025-07-01T19:04:56.4Z)
Latitude
0.00001°
Longitude
130.94958°
Altitude
355.772 km
Speed
7.698 km/s
True Right ascension
22h 29m 04s
True Declination
0° 00' 00"
Sunlit
Object was in full shadow at epoch
Visualization orbit readout
Latitude
43.08452°
Longitude
-145.60602°
Altitude
360.064 km
Speed
7.699 km/s
Apparent Right ascension
04h 10m 17s
Apparent Declination
2° 58' 09"
Sunlit
Object is in daylight
Visualization observer readout
Local Sidereal Time
16:17:47
Azimuth
2.745° NNE
Elevation
-47.08°
Doppler factor
1
Orbital elements
Apogee altitude
359.508 km
Perigee altitude
357.248 km
Semi-major axis
6,736.515 km
Eccentricity
0.00017
Inclination
42.9991°
RAAN
337.27°
Arg. of periapsis
290.551°
True anomaly
Unknown
Mean anomaly
69.5178°
Eccentric anomaly
Unknown
Mean motion
3.92546 °/min
Orbital period
91.71 mins
BSTAR
0.0015059
Loading maneuver chart data...
Loading SW <> Apogee altitude chart data...
Loading historical data...
Loading historical data...
Loading historical data...
Loading historical data...
Loading historical data...
Loading historical data...
Loading historical data...

STARLINK-11589 Visibility forecast

Observer location: undefined°, undefined°

Span
Click to sort rows by Start time (UTC) header in descending order
Start Az.
Max El. time (UTC)
Max El. Az.
Max El.
End time (UTC)
End Az.
4 mins2025-07-02 13:36:20.990Z211.101° SW2025-07-02 13:38:20.990Z157.616° S27.346°2025-07-02 13:40:20.990Z94.936° ESE
4 mins2025-07-02 15:13:20.990Z279.341° WNW2025-07-02 15:14:20.990Z332.466° NNW40.692°2025-07-02 15:17:20.990Z68.909° E
4 mins2025-07-02 16:49:20.990Z303.271° NW2025-07-02 16:50:20.990Z335.895° NNW33.274°2025-07-02 16:53:20.990Z78.412° E
4 mins2025-07-02 18:25:20.990Z280.268° WNW2025-07-02 18:27:20.990Z151.392° SSE40.17°2025-07-02 18:29:20.990Z119.767° SE
|